Overview Statistics Trail Chart Weather Telemetry Raw packets
 

This is the latest recevied weather packets stored in our database for station/object WI0K. If no packets are shown the sender has not sent any weather packets the latest 10 day(s).

<< 90 91 92 93 94 95 96 >>
Time Temp. Humidity Pressure Rain* Wind** Luminosity Snow
1788002253 19.44° C 52% 1019.9 hPa 0 mm - 0 W/m² -
1788001952 19.44° C 52% 1019.9 hPa 0 mm - 0 W/m² -
1788001651 19.44° C 52% 1020.1 hPa 0 mm - 0 W/m² -
1788001348 19.44° C 52% 1020.1 hPa 0 mm - 0 W/m² -
1788001048 19.44° C 54% 1020.1 hPa 0 mm - 0 W/m² -
1788000746 18.89° C 56% 1020.3 hPa 0 mm - 0 W/m² -
1788000445 19.44° C 56% 1020.3 hPa 0 mm - 0 W/m² -
1788000144 19.44° C 55% 1020.3 hPa 0 mm - 0 W/m² -
1787999843 19.44° C 56% 1020.3 hPa 0 mm - 0 W/m² -
1787999542 18.89° C 57% 1020.3 hPa 0 mm - 0 W/m² -
1787999241 18.89° C 60% 1020.4 hPa 0 mm - 0 W/m² -
1787998940 18.89° C 58% 1020.4 hPa 0 mm - 0 W/m² -
1787998640 18.89° C 57% 1020.4 hPa 0 mm - 0 W/m² -
1787998339 18.33° C 58% 1020.4 hPa 0 mm - 0 W/m² -
1787998038 18.33° C 60% 1020.4 hPa 0 mm - 0 W/m² -
1787997738 18.33° C 60% 1020.4 hPa 0 mm - 0 W/m² -
1787997437 18.89° C 60% 1020.3 hPa 0 mm - 0 W/m² -
1787997136 18.33° C 59% 1020.3 hPa 0 mm - 0 W/m² -
1787996835 18.33° C 61% 1020.4 hPa 0 mm - 0 W/m² -
1787996542 18.33° C 61% 1020.5 hPa 0 mm - 0 W/m² -
1787996234 18.89° C 59% 1020.5 hPa 0 mm - 0 W/m² -
1787995933 18.33° C 60% 1020.3 hPa 0 mm - 0 W/m² -
1787995632 18.33° C 61% 1020.3 hPa 0 mm - 0 W/m² -
1787995332 18.33° C 60% 1020.3 hPa 0 mm - 0 W/m² -
1787995031 18.33° C 60% 1020.4 hPa 0 mm - 0 W/m² -

* Rain latest hour (hover to see other rain measurements)
** Current wind speed in m/s (hover to see current wind gust speed)